map of ORN home
Great Circle Mapper logo
ORN - Airport
Location
City:  Oran, Algeria
Name:Es SÚnia
ICAO / IATA:DAOO / ORN

Details
Type:Airport (Aerodrome, Airfield)
Latitude:35░37'38"N (35.627222)
Longitude:0░36'41"W (-0.611388)
Elevation:299 ft (91 m)
Variation:0.2░W (WMM2015 magnetic declination)
Runways:2
Longest:10039 × 148 ft (3060 × 45 m)

Time
Time Zone:UTC+1
Local Time:

Weather
METAR:DAOO 211900Z 04002KT 9999 SCT020 11/09 Q1031
TAF:DAOO 211100Z 2112/2212 VRB02KT 1600 BR SCT010 SCT020
BECMG 2112/2115 05010KT 9000 SCT020
BECMG 2118/2121 VRB02KT
TEMPO 2203/2208 4000 BR SCT010
BECMG 2210/2212 07008KT CAVOK

Related Locations
Nearby:
Farthest:NZOP: 12232 mi / 19686 km
Opotiki, NZ

Find:

   beyond  
but within

Other Information
Maps:
NOTAMs:
Links:
Sources:

  
flag of Algeria   

Sectional Chart

Flight Planning
at skyvector.com

Satellite Image

Google Maps Satellite View

 

Copyright © 2004-2014 Karl L. Swartz. All rights reserved.
The Great Circle Mapper name and logo are trademarks of the Great Circle Mapper.
All other trademarks mentioned herein belong to their respective owners.
Please see credits for attibutions and further copyright information.

  Follow gcmap on Facebook Follow gcmap on Twitter

hCard Microformat

Geo Microformat